Torna al catalogo

STARLINK-5222

AttivoComunicazioniVLEO
NORAD 54068·PAYLOAD·🇺🇸 United States

Lanciato Oct 20, 2022 da Cape Canaveral Space Force Station

Loading…

Prossimi Passaggi (prossime 24 ore)

TLE

AggiornatoSource: CelesTrak SupGP

Epoca: Sep 14, 2026, 21:18 UTC

1 54068C 22136T   26257.88798611  .00009963  00000+0  28506-3 0  2574
2 54068  53.1580 205.7469 0001474 103.1530 349.8852 15.35391090    15

Traccia STARLINK-5222 in tempo reale con AllMySat

Download on the App Store